Weather History for Charlotte, NC

Change the Weather History Date:

Sunday, June 19, 2011

  Actual Average Record
Temperature  
Mean Temperature 76 °F 76 °F  
Max Temperature 85 °F 87 °F 102 °F (1944)
Min Temperature 67 °F 66 °F 54 °F (1965)
Degree Days  
Heating Degree Days 0 0  
Month to date heating degree days 0 0  
Since 1 June heating degree days 0 0  
Since 1 July heating degree days 3359 3385  
Cooling Degree Days 11 11  
Month to date cooling degree days 245 176  
Year to date cooling degree days 540 339  
Since 1 June cooling degree days 245 176  
Growing Degree Days 25 (Base 50)    
Moisture  
Dew Point 67 °F    
Average Humidity 74    
Maximum Humidity 100    
Minimum Humidity 48    
Precipitation  
Precipitation 0.00 in 0.13 in 1.50 in (1995)
Month to date precipitation 0.65 2.48  
Year to date precipitation 18.02 19.44  
Snow  
Snow 0.00 in 0.00 in 0.00 in ()
Month to date snowfall 0.0 0.0  
Since 1 June snowfall 0.0 0.0  
Since 1 July snowfall 6.1 4.3  
Snow Depth 0.00 in    
Sea Level Pressure  
Sea Level Pressure 29.90 in    
Wind  
Wind Speed 5 mph (WSW)    
Max Wind Speed 16 mph    
Max Gust Speed 28 mph    
Visibility 10 miles    
Events      
T = Trace of Precipitation, MM = Missing Value Source: NWS Daily Summary

Daily Weather History Graph

Daily Weather History Graph

Search for Another Location

Airport:

Trip Planner

Search our weather history database for the weather conditions in past years. The results will help you decide how hot, cold, wet, or windy it might be!

Date:

Astronomy

Jun. 19, 2011 Rise Set
Actual Time 6:09 AM EDT 8:41 PM EDT
Civil Twilight 5:39 AM EDT 9:11 PM EDT
Nautical Twilight 5:02 AM EDT 9:47 PM EDT
Astronomical Twilight 4:21 AM EDT 10:28 PM EDT
Moon 11:30 PM EDT (6/19) 9:58 AM EDT (6/19)
Length of Visible Light 15h 31m
Length of Day
14h 31m
Waning Gibbous, 84% of the Moon is Illuminated
Jun 19
Waning Gibbous
Jun 23
Last Quarter
Jul 1
New
Jul 8
First Quarter
Jul 15
Full

Hourly Weather History & Observations

Time (EDT) Temp. Heat Index Dew Point Humidity Pressure Visibility Wind Dir Wind Speed Gust Speed Precip Events Conditions
12:52 AM 66.9 °F - 66.0 °F 97% 29.93 in 10.0 mi Calm Calm - N/A   Scattered Clouds
1:52 AM 66.9 °F - 64.9 °F 93% 29.93 in 10.0 mi WSW 3.5 mph - N/A   Partly Cloudy
2:52 AM 68.0 °F - 66.0 °F 93% 29.92 in 10.0 mi WSW 5.8 mph - N/A   Mostly Cloudy
3:52 AM 68.0 °F - 66.0 °F 93% 29.92 in 10.0 mi WSW 3.5 mph - N/A   Mostly Cloudy
4:52 AM 68.0 °F - 66.0 °F 93% 29.93 in 10.0 mi WSW 4.6 mph - N/A   Mostly Cloudy
5:52 AM 68.0 °F - 66.2 °F 94% 29.91 in 10.0 mi SSW 5.8 mph - N/A   Overcast
6:52 AM 69.1 °F - 66.0 °F 90% 29.91 in 10.0 mi SW 6.9 mph - N/A   Mostly Cloudy
7:52 AM 71.1 °F - 66.9 °F 87% 29.90 in 10.0 mi SW 4.6 mph - N/A   Scattered Clouds
8:52 AM 75.0 °F - 68.0 °F 79% 29.91 in 10.0 mi West 8.1 mph - N/A   Mostly Cloudy
9:52 AM 75.0 °F - 68.0 °F 79% 29.90 in 10.0 mi WSW 3.5 mph - N/A   Mostly Cloudy
10:52 AM 75.0 °F - 69.1 °F 82% 29.92 in 10.0 mi West 4.6 mph - N/A   Mostly Cloudy
11:52 AM 78.1 °F - 66.0 °F 66% 29.98 in 10.0 mi NW 12.7 mph 20.7 mph N/A   Overcast
12:52 PM 77.0 °F - 64.0 °F 64% 29.91 in 10.0 mi Calm Calm - N/A   Overcast
1:52 PM 81.0 °F 83.0 °F 66.0 °F 60% 29.93 in 10.0 mi WSW 9.2 mph - N/A   Overcast
2:52 PM 84.9 °F 87.1 °F 66.0 °F 53% 29.96 in 10.0 mi NW 13.8 mph 25.3 mph N/A   Overcast
3:52 PM 84.0 °F 84.5 °F 62.1 °F 47% 29.81 in 10.0 mi SE 11.5 mph - N/A   Mostly Cloudy
4:52 PM 82.9 °F 84.4 °F 64.0 °F 53% 29.89 in 10.0 mi WNW 3.5 mph - N/A   Mostly Cloudy
5:52 PM 82.9 °F 85.8 °F 68.0 °F 60% 29.87 in 10.0 mi SW 6.9 mph - N/A   Overcast
6:52 PM 82.0 °F 84.1 °F 66.0 °F 58% 29.84 in 10.0 mi South 3.5 mph - N/A   Overcast
7:52 PM 81.0 °F 84.1 °F 69.1 °F 67% 29.84 in 10.0 mi WSW 3.5 mph - N/A   Overcast
8:52 PM 77.0 °F - 70.0 °F 79% 29.84 in 10.0 mi Calm Calm - N/A   Mostly Cloudy
9:52 PM 75.0 °F - 69.1 °F 82% 29.87 in 10.0 mi WNW 3.5 mph - N/A   Scattered Clouds
10:52 PM 73.9 °F - 69.1 °F 85% 29.86 in 10.0 mi Calm Calm - N/A   Partly Cloudy
11:52 PM 72.0 °F - 69.1 °F 91% 29.86 in 10.0 mi Calm Calm - N/A   Clear